Akhiok AP, Akhiok, AK, AK

3:11 AM AKDT on June 27, 2017 (GMT -0800)
Akhiok AP, Akhiok, AK

Weather History for PAKH - January, 2014

Change the Weather History Date:

Friday, January 31, 2014

  Actual Average (PADQ) Record (PADQ)
Temperature  
Mean Temperature 38 °F -  
Max Temperature 42 °F 33 °F 54 °F (1963)
Min Temperature 35 °F 24 °F -4 °F (1999)
Degree Days  
Heating Degree Days 26    
Moisture  
Dew Point 36 °F    
Average Humidity 91    
Maximum Humidity 100    
Minimum Humidity 79    
Precipitation  
Precipitation 0.00 in - - ()
Sea Level Pressure  
Sea Level Pressure 30.24 in    
Wind  
Wind Speed 3 mph (WNW)    
Max Wind Speed 7 mph    
Max Gust Speed -    
Visibility 10 miles    
Events      
Averages and records for this station are not official NWS values.
T = Trace of Precipitation, MM = Missing Value Source: NWS Daily Summary

Daily Weather History Graph

Daily Weather History Graph

Search for Another Location

Airport or City:

Trip Planner

Search our weather history database for the weather conditions in past years. The results will help you decide how hot, cold, wet, or windy it might be!

Date:

Astronomy

Jan. 31, 2014 Rise Set
Actual Time 9:16 AM AKST 5:44 PM AKST
Civil Twilight 8:34 AM AKST 6:26 PM AKST
Nautical Twilight 7:48 AM AKST 7:13 PM AKST
Astronomical Twilight 7:03 AM AKST 7:57 PM AKST
Moon 9:10 AM AKST (1/31) 7:50 PM AKST (1/31)
Length of Visible Light 9h 52m
Length of Day
8h 27m
New Moon, 1% of the Moon is Illuminated
Jan 31
New Moon
Feb 6
First Quarter
Feb 14
Full
Feb 22
Last Quarter
Feb 28
New

Hourly Weather History & Observations

Time (AKST) Temp. Windchill Dew Point Humidity Pressure Visibility Wind Dir Wind Speed Gust Speed Precip Events Conditions
12:03 AM 39.2 °F 35.0 °F 37.4 °F 93% 30.19 in 10.0 mi East 5.8 mph - N/A   Overcast
12:56 AM 38.8 °F 35.4 °F 36.0 °F 89% 30.21 in 10.0 mi East 4.6 mph - N/A   Overcast
1:56 AM 37.9 °F 32.7 °F 36.9 °F 96% 30.21 in 10.0 mi East 6.9 mph - N/A   Overcast
2:45 AM 37.4 °F 34.9 °F 35.6 °F 93% 30.20 in 10.0 mi ENE 3.5 mph - N/A   Overcast
2:56 AM 37.9 °F - 34.9 °F 89% 30.21 in 10.0 mi Calm Calm - N/A   Overcast
3:56 AM 36.9 °F - 34.9 °F 93% 30.22 in 10.0 mi Calm Calm - N/A   Overcast
4:56 AM 36.0 °F 32.1 °F 34.9 °F 96% 30.22 in 10.0 mi NNE 4.6 mph - N/A   Mostly Cloudy
5:08 AM 35.6 °F 31.7 °F 33.8 °F 93% 30.20 in 10.0 mi NNE 4.6 mph - N/A   Scattered Clouds
5:56 AM 36.0 °F - 32.9 °F 89% 30.22 in 10.0 mi Calm Calm - N/A   Clear
6:33 AM 35.6 °F - 33.8 °F 93% 30.22 in 10.0 mi Calm Calm - N/A   Mostly Cloudy
6:56 AM 36.9 °F - 32.9 °F 86% 30.23 in 10.0 mi Calm Calm - N/A   Overcast
7:49 AM 35.6 °F - 33.8 °F 93% 30.22 in 10.0 mi Calm Calm - N/A   Overcast
7:56 AM 36.0 °F - 34.0 °F 93% 30.24 in 10.0 mi Calm Calm - N/A   Overcast
8:56 AM 35.6 °F - 33.8 °F 93% 30.24 in 10.0 mi Calm Calm - N/A   Overcast
9:56 AM 36.9 °F - 34.9 °F 93% 30.27 in 10.0 mi Calm Calm - N/A   Overcast
10:33 AM 37.4 °F - 35.6 °F 93% 30.26 in 10.0 mi Calm Calm - N/A   Overcast
10:56 AM 36.9 °F - 34.9 °F 93% 30.27 in 10.0 mi Calm Calm - N/A   Overcast
11:24 AM 37.4 °F - 35.6 °F 93% 30.27 in 10.0 mi Calm Calm - N/A   Overcast
11:56 AM 38.8 °F - 36.9 °F 93% 30.28 in 10.0 mi Calm Calm - N/A   Overcast
12:56 PM 41.0 °F 39.0 °F 37.9 °F 89% 30.28 in 7.0 mi WSW 3.5 mph - N/A   Overcast
1:07 PM 42.8 °F - 37.4 °F 81% 30.26 in 10.0 mi Calm Calm - N/A   Overcast
1:56 PM 41.0 °F - 36.9 °F 85% 30.28 in 10.0 mi Calm Calm - N/A   Overcast
2:56 PM 41.9 °F 39.0 °F 36.0 °F 79% 30.27 in 10.0 mi West 4.6 mph - N/A   Overcast
3:56 PM 41.9 °F 38.2 °F 36.9 °F 82% 30.27 in 10.0 mi WSW 5.8 mph - N/A   Overcast
4:39 PM 41.0 °F 37.1 °F 37.4 °F 87% 30.26 in 10.0 mi West 5.8 mph - N/A   Overcast
4:56 PM 41.0 °F 38.0 °F 37.9 °F 89% 30.28 in 10.0 mi West 4.6 mph - N/A   Overcast
5:56 PM 39.2 °F 35.9 °F 37.4 °F 93% 30.28 in 10.0 mi West 4.6 mph - N/A   Overcast
6:56 PM 39.9 °F 36.7 °F 37.9 °F 93% - - West 4.6 mph - N/A   Unknown
7:56 PM 38.8 °F - 36.9 °F 93% - - Calm Calm - N/A   Unknown
8:56 PM 38.8 °F 36.5 °F 36.9 °F 93% - - WNW 3.5 mph - N/A   Unknown
9:56 PM 39.9 °F - 36.9 °F 89% - - Calm Calm - N/A   Unknown
10:56 PM 37.9 °F 35.5 °F 36.0 °F 93% - - WNW 3.5 mph - N/A   Unknown
11:56 PM 37.9 °F 32.7 °F 37.9 °F 100% - - WSW 6.9 mph - N/A   Unknown